Hourly Weather Roundup
Issued by NWS Central Illinois

Home | Current Version | Previous Version | Text Only | Print | Product List | Glossary On
Versions: 1 2 3 4 5 6 7 8 9 10 11 12 13 14 15 16 17 18 19 20 21 22 23 24 25 26 27 28 29 30 31 32 33 34 35 36 37 38 39 40 41 42 43 44 45 46 47 48 49 50
000
NZUS43 KILX 201310
HWRILX

Area Weather Roundup
National Weather Service Lincoln IL
700 AM CST MON NOV 20 2017

NOTE:  "FAIR" indicates few or no clouds below 12,000 feet, with
       no sigificant weather and/or obstructions to visibility.


CITY           SKY/WX    TMP DP  RH WIND       PRES   REMARKS
Bloomington    CLOUDY    32  25  75 S15       30.04S WCI  22
Champaign      CLOUDY    31  24  75 S15       30.08S WCI  20
Danville       CLOUDY    31  23  71 S13       30.07S WCI  22
Decatur        CLEAR     33  23  66 SW13      30.09R WCI  24
Effingham      CLEAR     30  23  75 SE6       30.17R WCI  24
Flora          CLOUDY    30  24  78 S6        30.15R WCI  24
Galesburg      CLOUDY    34  28  80 S12       29.96S WCI  25
Jacksonville   CLEAR     33  25  72 S12       30.04F WCI  24
Lacon          CLOUDY    35  25  67 S10       29.98S WCI  28
Lawrenceville  CLOUDY    29  23  78 S8        30.20S WCI  21
Litchfield     CLOUDY    30  24  79 S10       30.09F WCI  21
$$


CITY           SKY/WX    TMP DP  RH WIND       PRES   REMARKS
Lincoln        CLOUDY    32  27  79 S9        30.05F WCI  25
Macomb         CLEAR     36  28  75 S10       29.99F WCI  28
Mattoon        CLOUDY    31  23  72 S12       30.11R WCI  22
Mt Carmel AP   CLOUDY    26  22  85 CALM      30.19S
Olney-Noble AP CLEAR     29  20  70 S7        30.19R WCI  22
Paris AP       CLOUDY    30  24  77 S9        30.14R WCI  22
Peoria         CLOUDY    32  25  75 S12       30.00F WCI  23
Pontiac        CLOUDY    35  28  75 S17G24    30.01S WCI  24
Rantoul        CLOUDY    33  27  80 S9        30.07S WCI  25
Robinson       CLOUDY    28  22  78 S7        30.18F WCI  21
Springfield    CLEAR     35  25  66 S9        30.06S WCI  28
Taylorville    CLEAR     32  24  74 S12       30.09S WCI  23
$$

...REGIONAL REPORTS...


CITY           SKY/WX    TMP DP  RH WIND       PRES   REMARKS
Chicago O`Hare PTCLDY    35  24  64 SW17G23   29.94F WCI  25
Kankakee       CLOUDY    33  25  73 S13       30.03S WCI  23
Moline         PTCLDY    37  26  64 SW5       29.91F WCI  33
Mount Sterling CLEAR     34  26  72 S9        30.00S WCI  27
Mount Vernon   CLOUDY    27  25  92 SW6       30.18S WCI  20
Pittsfield     CLOUDY    38  27  64 S13G18    30.03F WCI  30
Quincy         CLEAR     39  27  62 S16       29.99F WCI  30
Rockford       PTCLDY    31  25  78 S10       29.92F WCI  22
$$


CITY           SKY/WX    TMP DP  RH WIND       PRES   REMARKS
Burlington     CLOUDY    37  29  72 S10       29.94S WCI  30
Cedar Rapids   CLEAR     33  28  81 S12       29.85F WCI  24
Des Moines     PTCLDY    37  28  70 S10       29.81F WCI  30
Kirksville     CLEAR     40  30  67 SW13G20   29.95S WCI  32
Ottumwa        CLOUDY    41  28  60 SW16      29.87S WCI  33
St Louis       CLOUDY    36  22  56 S7        30.11S WCI  30
$$


CITY           SKY/WX    TMP DP  RH WIND       PRES   REMARKS
Terre Haute    CLOUDY    29  21  72 S8        30.16S WCI  21
Evansville     CLOUDY    27  24  89 S3        30.24R
Indianapolis   CLOUDY    27  21  78 S7        30.16S WCI  19
Lafayette      CLOUDY    31  23  72 SW5       30.11R WCI  26
Madison        CLOUDY    31  25  78 S8        29.84F WCI  23
Milwaukee      MOCLDY    32  25  75 SW12      29.88F WCI  23
$$






USA.gov is the U.S. government's official web portal to all federal, state and local government web resources and services.